Time,TemperatureF,DewpointF,PressureIn,WindDirection,WindDirectionDegrees,WindSpeedMPH,WindSpeedGustMPH,Humidity,HourlyPrecipIn,Conditions,Clouds,dailyrainin,SolarRadiationWatts/m^2,SoftwareType,DateUTC
2013-07-04 00:02:00,58.0,49.0,-100.00,North,10,1.0,10.0,72,0.00,,,0.00,176.000000,,2013-07-04 04:02:00,
2013-07-04 00:11:00,58.0,49.0,-100.00,North,10,1.0,10.0,72,0.00,,,0.00,176.000000,,2013-07-04 04:11:00,
2013-07-04 00:22:00,58.0,49.0,-100.00,North,10,1.0,10.0,72,0.00,,,0.00,176.000000,,2013-07-04 04:22:00,
2013-07-04 00:52:00,52.0,47.0,-100.00,South,187,0.0,4.0,84,0.00,,,0.00,39.000000,,2013-07-04 04:52:00,
2013-07-04 01:01:00,52.0,47.0,-100.00,South,187,0.0,4.0,84,0.00,,,0.00,39.000000,,2013-07-04 05:01:00,
2013-07-04 01:12:00,52.0,47.0,-100.00,South,187,0.0,4.0,84,0.00,,,0.00,39.000000,,2013-07-04 05:12:00,
2013-07-04 01:22:00,52.0,47.0,-100.00,South,187,0.0,4.0,84,0.00,,,0.00,39.000000,,2013-07-04 05:22:00,
2013-07-04 01:52:00,49.0,47.0,-100.00,SSW,193,1.0,3.0,93,0.00,,,0.00,1.000000,,2013-07-04 05:52:00,
2013-07-04 02:01:00,49.0,47.0,-100.00,SSW,193,1.0,3.0,93,0.00,,,0.00,1.000000,,2013-07-04 06:01:00,
2013-07-04 02:11:00,49.0,47.0,-100.00,SSW,193,1.0,3.0,93,0.00,,,0.00,1.000000,,2013-07-04 06:11:00,
2013-07-04 02:22:00,49.0,47.0,-100.00,SSW,193,1.0,3.0,93,0.00,,,0.00,1.000000,,2013-07-04 06:22:00,
2013-07-04 02:53:00,48.0,47.0,-100.00,SE,136,1.0,3.0,96,0.00,,,0.00,0.000000,,2013-07-04 06:53:00,
2013-07-04 03:02:00,48.0,47.0,-100.00,SE,136,1.0,3.0,96,0.00,,,0.00,0.000000,,2013-07-04 07:02:00,
2013-07-04 03:12:00,48.0,47.0,-100.00,SE,136,1.0,3.0,96,0.00,,,0.00,0.000000,,2013-07-04 07:12:00,
2013-07-04 03:21:00,48.0,47.0,-100.00,SE,136,1.0,3.0,96,0.00,,,0.00,0.000000,,2013-07-04 07:21:00,
2013-07-04 03:52:00,47.0,46.0,-100.00,ESE,108,1.0,3.0,97,0.00,,,0.00,0.000000,,2013-07-04 07:52:00,
2013-07-04 04:02:00,47.0,46.0,-100.00,ESE,108,1.0,3.0,97,0.00,,,0.00,0.000000,,2013-07-04 08:02:00,
2013-07-04 04:11:00,47.0,46.0,-100.00,ESE,108,1.0,3.0,97,0.00,,,0.00,0.000000,,2013-07-04 08:11:00,
2013-07-04 04:21:00,47.0,46.0,-100.00,ESE,108,1.0,3.0,97,0.00,,,0.00,0.000000,,2013-07-04 08:21:00,
2013-07-04 04:53:00,47.0,46.0,-100.00,NNE,25,0.0,3.0,97,0.00,,,0.00,0.000000,,2013-07-04 08:53:00,
2013-07-04 05:02:00,47.0,46.0,-100.00,NNE,25,0.0,3.0,97,0.00,,,0.00,0.000000,,2013-07-04 09:02:00,
2013-07-04 05:11:00,47.0,46.0,-100.00,NNE,25,0.0,3.0,97,0.00,,,0.00,0.000000,,2013-07-04 09:11:00,
2013-07-04 05:22:00,47.0,46.0,-100.00,NNE,25,0.0,3.0,97,0.00,,,0.00,0.000000,,2013-07-04 09:22:00,
2013-07-04 05:52:00,46.0,45.0,-100.00,ESE,119,2.0,6.0,97,0.00,,,0.00,0.000000,,2013-07-04 09:52:00,
2013-07-04 06:01:00,46.0,45.0,-100.00,ESE,119,2.0,6.0,97,0.00,,,0.00,0.000000,,2013-07-04 10:01:00,
2013-07-04 06:11:00,46.0,45.0,-100.00,ESE,119,2.0,6.0,97,0.00,,,0.00,0.000000,,2013-07-04 10:11:00,
2013-07-04 06:22:00,46.0,45.0,-100.00,ESE,119,2.0,6.0,97,0.00,,,0.00,0.000000,,2013-07-04 10:22:00,
2013-07-04 06:53:00,46.0,44.0,-100.00,SE,143,1.0,7.0,91,0.00,,,0.00,0.000000,,2013-07-04 10:53:00,
2013-07-04 07:02:00,46.0,44.0,-100.00,SE,143,1.0,7.0,91,0.00,,,0.00,0.000000,,2013-07-04 11:02:00,
2013-07-04 07:11:00,46.0,44.0,-100.00,SE,143,1.0,7.0,91,0.00,,,0.00,0.000000,,2013-07-04 11:11:00,
2013-07-04 07:22:00,46.0,44.0,-100.00,SE,143,1.0,7.0,91,0.00,,,0.00,0.000000,,2013-07-04 11:22:00,
2013-07-04 07:53:00,47.0,43.0,-100.00,South,191,0.0,4.0,87,0.00,,,0.00,0.000000,,2013-07-04 11:53:00,
2013-07-04 08:01:00,47.0,43.0,-100.00,South,191,0.0,4.0,87,0.00,,,0.00,0.000000,,2013-07-04 12:01:00,
2013-07-04 08:11:00,47.0,43.0,-100.00,South,191,0.0,4.0,87,0.00,,,0.00,0.000000,,2013-07-04 12:11:00,
2013-07-04 08:22:00,47.0,43.0,-100.00,South,191,0.0,4.0,87,0.00,,,0.00,0.000000,,2013-07-04 12:22:00,
2013-07-04 09:02:00,47.0,44.0,-100.00,East,91,1.0,2.0,89,0.00,,,0.00,1.000000,,2013-07-04 13:02:00,
2013-07-04 09:12:00,47.0,44.0,-100.00,East,91,1.0,2.0,89,0.00,,,0.00,1.000000,,2013-07-04 13:12:00,
2013-07-04 09:22:00,47.0,44.0,-100.00,East,91,1.0,2.0,89,0.00,,,0.00,1.000000,,2013-07-04 13:22:00,
2013-07-04 09:53:00,50.0,45.0,-100.00,WNW,299,0.0,4.0,84,0.00,,,0.00,43.000000,,2013-07-04 13:53:00,
2013-07-04 10:02:00,50.0,45.0,-100.00,WNW,299,0.0,4.0,84,0.00,,,0.00,43.000000,,2013-07-04 14:02:00,
2013-07-04 10:11:00,50.0,45.0,-100.00,WNW,299,0.0,4.0,84,0.00,,,0.00,43.000000,,2013-07-04 14:11:00,
2013-07-04 10:22:00,50.0,45.0,-100.00,WNW,299,0.0,4.0,84,0.00,,,0.00,43.000000,,2013-07-04 14:22:00,
2013-07-04 10:53:00,53.0,47.0,-100.00,WSW,244,2.0,5.0,79,0.00,,,-99.99,196.000000,,2013-07-04 14:53:00,
2013-07-04 11:02:00,53.0,47.0,-100.00,WSW,244,2.0,5.0,79,0.00,,,-99.99,196.000000,,2013-07-04 15:02:00,
2013-07-04 11:11:00,53.0,47.0,-100.00,WSW,244,2.0,5.0,79,0.00,,,-99.99,196.000000,,2013-07-04 15:11:00,
2013-07-04 11:23:00,53.0,47.0,-100.00,WSW,244,2.0,5.0,79,0.00,,,-99.99,196.000000,,2013-07-04 15:23:00,
2013-07-04 11:52:00,56.0,47.0,-100.00,NNE,19,1.0,7.0,71,0.00,,,0.00,341.000000,,2013-07-04 15:52:00,
2013-07-04 12:02:00,56.0,47.0,-100.00,NNE,19,1.0,7.0,71,0.00,,,0.00,341.000000,,2013-07-04 16:02:00,
2013-07-04 12:11:00,56.0,47.0,-100.00,NNE,19,1.0,7.0,71,0.00,,,0.00,341.000000,,2013-07-04 16:11:00,
2013-07-04 12:22:00,56.0,47.0,-100.00,NNE,19,1.0,7.0,71,0.00,,,0.00,341.000000,,2013-07-04 16:22:00,
2013-07-04 12:52:00,56.0,48.0,-100.00,North,1,4.0,7.0,74,0.00,,,0.00,502.000000,,2013-07-04 16:52:00,
2013-07-04 13:01:00,56.0,48.0,-100.00,North,1,4.0,7.0,74,0.00,,,0.00,502.000000,,2013-07-04 17:01:00,
2013-07-04 13:11:00,56.0,48.0,-100.00,North,1,4.0,7.0,74,0.00,,,0.00,502.000000,,2013-07-04 17:11:00,
2013-07-04 13:22:00,56.0,48.0,-100.00,North,1,4.0,7.0,74,0.00,,,0.00,502.000000,,2013-07-04 17:22:00,
2013-07-04 13:53:00,59.0,49.0,-100.00,NW,309,3.0,8.0,70,0.00,,,0.00,616.000000,,2013-07-04 17:53:00,
2013-07-04 14:01:00,59.0,49.0,-100.00,NW,309,3.0,8.0,70,0.00,,,0.00,616.000000,,2013-07-04 18:01:00,
2013-07-04 14:11:00,59.0,49.0,-100.00,NW,309,3.0,8.0,70,0.00,,,0.00,616.000000,,2013-07-04 18:11:00,
2013-07-04 14:22:00,59.0,49.0,-100.00,NW,309,3.0,8.0,70,0.00,,,0.00,616.000000,,2013-07-04 18:22:00,
2013-07-04 14:52:00,62.0,47.0,-100.00,West,281,5.0,13.0,58,0.00,,,0.00,778.000000,,2013-07-04 18:52:00,
2013-07-04 15:01:00,62.0,47.0,-100.00,West,281,5.0,13.0,58,0.00,,,0.00,778.000000,,2013-07-04 19:01:00,
2013-07-04 15:11:00,62.0,47.0,-100.00,West,281,5.0,13.0,58,0.00,,,0.00,778.000000,,2013-07-04 19:11:00,
2013-07-04 15:22:00,62.0,47.0,-100.00,West,281,5.0,13.0,58,0.00,,,0.00,778.000000,,2013-07-04 19:22:00,
2013-07-04 15:53:00,65.0,48.0,-100.00,WNW,288,4.0,14.0,54,0.00,,,0.00,851.000000,,2013-07-04 19:53:00,
2013-07-04 16:01:00,65.0,48.0,-100.00,WNW,288,4.0,14.0,54,0.00,,,0.00,851.000000,,2013-07-04 20:01:00,
2013-07-04 16:11:00,65.0,48.0,-100.00,WNW,288,4.0,14.0,54,0.00,,,0.00,851.000000,,2013-07-04 20:11:00,
2013-07-04 16:22:00,65.0,48.0,-100.00,WNW,288,4.0,14.0,54,0.00,,,0.00,851.000000,,2013-07-04 20:22:00,
2013-07-04 16:53:00,64.0,48.0,-100.00,West,279,7.0,14.0,57,0.00,,,0.00,898.000000,,2013-07-04 20:53:00,
2013-07-04 17:01:00,64.0,48.0,-100.00,West,279,7.0,14.0,57,0.00,,,0.00,898.000000,,2013-07-04 21:01:00,
2013-07-04 17:11:00,64.0,48.0,-100.00,West,279,7.0,14.0,57,0.00,,,0.00,898.000000,,2013-07-04 21:11:00,
2013-07-04 17:22:00,64.0,48.0,-100.00,West,279,7.0,14.0,57,0.00,,,0.00,898.000000,,2013-07-04 21:22:00,
2013-07-04 17:53:00,66.0,49.0,-100.00,WNW,282,7.0,16.0,55,0.00,,,-99.99,899.000000,,2013-07-04 21:53:00,
2013-07-04 18:01:00,66.0,49.0,-100.00,WNW,282,7.0,16.0,55,0.00,,,-99.99,899.000000,,2013-07-04 22:01:00,
2013-07-04 18:11:00,66.0,49.0,-100.00,WNW,282,7.0,16.0,55,0.00,,,-99.99,899.000000,,2013-07-04 22:11:00,
2013-07-04 18:22:00,66.0,49.0,-100.00,WNW,282,7.0,16.0,55,0.00,,,-99.99,899.000000,,2013-07-04 22:22:00,
2013-07-04 18:52:00,65.0,47.0,-100.00,West,273,9.0,18.0,53,0.00,,,0.00,862.000000,,2013-07-04 22:52:00,
2013-07-04 19:01:00,65.0,47.0,-100.00,West,273,9.0,18.0,53,0.00,,,0.00,862.000000,,2013-07-04 23:01:00,
2013-07-04 19:11:00,65.0,47.0,-100.00,West,273,9.0,18.0,53,0.00,,,0.00,862.000000,,2013-07-04 23:11:00,
2013-07-04 19:23:00,65.0,47.0,-100.00,West,273,9.0,18.0,53,0.00,,,0.00,862.000000,,2013-07-04 23:23:00,
2013-07-04 19:52:00,66.0,47.0,-100.00,WNW,286,7.0,17.0,51,0.00,,,0.00,775.000000,,2013-07-04 23:52:00,
2013-07-04 20:01:00,66.0,47.0,-100.00,WNW,286,7.0,17.0,51,0.00,,,0.00,775.000000,,2013-07-05 00:01:00,
2013-07-04 20:11:00,66.0,47.0,-100.00,WNW,286,7.0,17.0,51,0.00,,,0.00,775.000000,,2013-07-05 00:11:00,
2013-07-04 20:21:00,66.0,47.0,-100.00,WNW,286,7.0,17.0,51,0.00,,,0.00,775.000000,,2013-07-05 00:21:00,
2013-07-04 20:52:00,65.0,48.0,-100.00,West,278,9.0,16.0,54,0.00,,,0.00,651.000000,,2013-07-05 00:52:00,
2013-07-04 21:01:00,65.0,48.0,-100.00,West,278,9.0,16.0,54,0.00,,,0.00,651.000000,,2013-07-05 01:01:00,
2013-07-04 21:11:00,65.0,48.0,-100.00,West,278,9.0,16.0,54,0.00,,,0.00,651.000000,,2013-07-05 01:11:00,
2013-07-04 21:21:00,65.0,48.0,-100.00,West,278,9.0,16.0,54,0.00,,,0.00,651.000000,,2013-07-05 01:21:00,
2013-07-04 21:52:00,63.0,49.0,-100.00,West,279,8.0,18.0,61,0.00,,,0.00,500.000000,,2013-07-05 01:52:00,
2013-07-04 22:02:00,63.0,49.0,-100.00,West,279,8.0,18.0,61,0.00,,,0.00,500.000000,,2013-07-05 02:02:00,
2013-07-04 22:11:00,63.0,49.0,-100.00,West,279,8.0,18.0,61,0.00,,,0.00,500.000000,,2013-07-05 02:11:00,
2013-07-04 22:21:00,63.0,49.0,-100.00,West,279,8.0,18.0,61,0.00,,,0.00,500.000000,,2013-07-05 02:21:00,
2013-07-04 22:52:00,60.0,49.0,-100.00,West,277,5.0,12.0,66,0.00,,,0.00,336.000000,,2013-07-05 02:52:00,
2013-07-04 23:02:00,60.0,49.0,-100.00,West,277,5.0,12.0,66,0.00,,,0.00,336.000000,,2013-07-05 03:02:00,
2013-07-04 23:11:00,60.0,49.0,-100.00,West,277,5.0,12.0,66,0.00,,,0.00,336.000000,,2013-07-05 03:11:00,
2013-07-04 23:21:00,60.0,49.0,-100.00,West,277,5.0,12.0,66,0.00,,,0.00,336.000000,,2013-07-05 03:21:00,
2013-07-04 23:52:00,57.0,48.0,-100.00,WSW,250,3.0,13.0,72,0.00,,,0.00,174.000000,,2013-07-05 03:52:00,